Starlink 5445

operational
NORAD ID: 54790 Int'l Des: 2022-175 Owner: SPXS Country: US Constellation: starlink
LEOCIRCULAR

About Starlink 5445

Description loading...

Live Position

Loading 3D Globe...

Upcoming Passes

Altitude History

Altitude vs Time

uPlot chart will show altitude changes over time

Two-Line Element Set

1 54790U 22175AJ 26062.13941538 -.00000016 00000-0 17066-4 0 9994
2 54790 53.2182 58.3178 0001273 86.3789 273.7349 15.08837098179140
Epoch: Mar 3, 2026 • Age: 13 hours

Current Status

Altitude 539.9 km
Velocity 7.60 km/s
Sub-Earth Point 21.47°N, 77.13°E
Launch Date Dec 17, 2022
Age 3.2 years
Type internet

Technical Details

Classification Payload
Mass 305.00 kg
Dry Mass 290.00 kg
Total Mass 305.00 kg
Length 0.20 m
Diameter 2.80 m
Span 9.00 m
Shape Box + pan
Manufacturer SPXS
Bus Type Starlink
Phase Status In Orbit
Owner/State SPXS/US

Large Constellations

Loading constellations...